Vancouver, WA
on Thursday, February 7, 2013

Thursday
Previous Day Next Day
Daily Summary
 ActualAverageRecord
Temperature
Mean Temperature °F 43°F  
Max Temperature 50°F 50°F 65°F (1963)
Min Temperature 30°F 35°F 11°F (1929)
Degree Days
Heating Degree Days 25    
Month to date heating degree days 148  
Since 1 July heating degree days 2571  
Cooling Degree Days 0    
Month to date cooling degree days 0  
Year to date cooling degree days 0  
Moisture
Dew Point 35°F   
Average Humidity 72    
Maximum Humidity 92    
Minimum Humidity 52    
Precipitation
Precipitation 0.01 in 0.17 in 1.50 in (1945)
Month to date precipitation 0.16 1.24  
Year to date precipitation 3.56 6.74  
Snow
Snow 0.00 in in in ()
Month to date snowfall 0.0  
Snow Depth 0.00 in   
Wind
Wind Speed 3 mph   
Max Wind Speed 10 mph   
Max Gust Speed 16 mph   
Visibility 10 miles   
Events Rain   

Key: T is trace of precipitation, MM is missing value
Source: NWS Daily Summary
Time(PST)TemperatureDew PointHumidity Pressure Visibility Wind DirectionWind SpeedGust SpeedPrecipitationEvents Conditions
12:53 AM 44.1°F 37.0°F 76% 29.95 in 10.0 miles South 8.1 mph - 0.01 in Rain Light Rain
1:43 AM 42.8°F 37.4°F 81% 29.97 in 10.0 miles SSE 5.8 mph - 0.00 in   Overcast
1:53 AM 43.0°F 37.0°F 80% 29.97 in 10.0 miles SSE 9.2 mph - 0.00 in   Overcast
2:53 AM 42.1°F 36.0°F 79% 29.98 in 10.0 miles South 6.9 mph - N/A   Partly Cloudy
3:53 AM 42.1°F 36.0°F 79% 29.99 in 10.0 miles South 3.5 mph - 0.00 in   Mostly Cloudy
4:53 AM 41.0°F 37.0°F 86% 30.00 in 10.0 miles East 4.6 mph - N/A   Overcast
5:53 AM 41.0°F 36.0°F 82% 30.01 in 10.0 miles SE 4.6 mph - N/A   Mostly Cloudy
6:04 AM 41.0°F 35.6°F 81% 30.01 in 10.0 miles ESE 4.6 mph - N/A   Mostly Cloudy
6:53 AM 41.0°F 35.1°F 79% 30.01 in 10.0 miles South 5.8 mph - N/A   Mostly Cloudy
8:32 AM 41.0°F 35.6°F 81% 30.04 in 10.0 miles ESE 5.8 mph - N/A   Mostly Cloudy
8:53 AM 41.0°F 36.0°F 82% 30.04 in 10.0 miles ESE 6.9 mph - N/A   Overcast
9:53 AM 43.0°F 37.0°F 80% 30.04 in 10.0 miles SSE 3.5 mph - N/A   Overcast
10:53 AM 44.1°F 36.0°F 73% 30.05 in 10.0 miles Calm Calm - N/A   Overcast
11:23 AM 44.6°F 37.4°F 76% 30.05 in 10.0 miles WSW 3.5 mph - N/A   Mostly Cloudy
11:53 AM 46.0°F 36.0°F 68% 30.04 in 10.0 miles SW 3.5 mph - N/A   Scattered Clouds
12:53 PM 46.0°F 35.1°F 66% 30.02 in 10.0 miles West 4.6 mph - N/A   Scattered Clouds
1:53 PM 48.0°F 35.1°F 61% 30.01 in 10.0 miles Calm Calm - N/A   Mostly Cloudy
2:53 PM 50.0°F 34.0°F 54% 30.01 in 10.0 miles Calm Calm - N/A   Mostly Cloudy
3:53 PM 48.0°F 33.1°F 56% 30.01 in 10.0 miles Calm Calm - N/A   Partly Cloudy
4:53 PM 46.9°F 34.0°F 61% 30.03 in 10.0 miles Calm Calm - N/A   Scattered Clouds
5:53 PM 45.0°F 36.0°F 71% 30.05 in 10.0 miles Calm Calm - N/A   Overcast
6:53 PM 44.1°F 37.0°F 76% 30.07 in 10.0 miles Variable 3.5 mph - 0.00 in   Overcast
7:53 PM 41.0°F 36.0°F 82% 30.09 in 10.0 miles WNW 3.5 mph - N/A   Clear
8:53 PM 37.0°F 33.1°F 86% 30.10 in 10.0 miles Calm Calm - N/A   Clear
9:53 PM 36.0°F 33.1°F 89% 30.12 in 10.0 miles Calm Calm - N/A   Clear
10:53 PM 32.0°F 28.9°F 88% 30.14 in 10.0 miles Calm Calm - N/A   Clear
11:53 PM 32.0°F 30.0°F 92% 30.17 in 10.0 miles Calm Calm - N/A   Clear
Moon Phase
Feb. 07 Feb. 10 Feb. 17 Feb. 25 Mar. 04
Sunrise:07:23 AM (PST) Moon Rise:05:12 AM (PST)2/7
Sunset:05:26 PM (PST) Moon Set:02:53 PM (PST)2/7

Copyright © 2014 The Weather Underground, Inc.